EDT,Max TemperatureF,Mean TemperatureF,Min TemperatureF,Max Dew PointF,MeanDew PointF,Min DewpointF,Max Humidity, Mean Humidity, Min Humidity, Max Sea Level PressureIn, Mean Sea Level PressureIn, Min Sea Level PressureIn, Max VisibilityMiles, Mean VisibilityMiles, Min VisibilityMiles, Max Wind SpeedMPH, Mean Wind SpeedMPH, Max Gust SpeedMPH,PrecipitationIn, CloudCover, Events, WindDirDegrees
2013-7-1,71,66,59,62,59,54,92,78,60,30.14,30.06,29.96,10,9,2,9,3,,0.00,6,Rain,355
2013-7-2,71,64,58,64,61,56,92,87,76,30.16,30.14,30.10,10,8,2,10,4,,0.00,8,Rain,7
2013-7-3,79,71,64,70,66,61,90,83,71,30.19,30.16,30.13,10,10,2,10,6,,0.00,6,Rain,180
2013-7-4,84,74,65,70,67,63,93,83,59,30.22,30.16,30.10,10,7,0,14,3,17,0.00,5,Fog-Rain,199
2013-7-5,83,74,66,70,66,61,91,75,58,30.16,30.12,30.06,10,10,3,9,5,,0.00,5,Rain,227
2013-7-6,79,72,64,67,62,57,90,69,49,30.09,30.06,30.01,10,10,7,13,6,22,0.00,3,,241
2013-7-7,79,70,63,65,61,55,92,73,55,30.04,30.01,29.97,10,9,2,9,3,,0.00,3,Rain,214
2013-7-8,78,71,64,65,63,60,93,79,58,30.08,30.01,29.97,10,7,0,9,2,,0.00,5,Fog-Rain,354
2013-7-9,82,72,62,67,64,59,91,79,56,30.10,30.06,30.01,10,9,4,14,3,,0.00,4,Rain,188
2013-7-10,74,70,66,66,64,63,89,82,73,30.03,29.87,29.75,10,10,7,16,8,22,0.00,6,Rain,163
2013-7-11,74,66,58,66,59,52,92,74,50,30.06,29.89,29.75,10,9,2,13,5,24,0.00,4,Rain,298
2013-7-12,75,63,51,55,51,46,93,66,35,30.24,30.16,30.06,10,10,0,7,2,,0.00,0,Fog,360
2013-7-13,80,66,52,63,57,50,92,71,46,30.33,30.30,30.24,10,10,7,10,3,,0.00,1,,196
2013-7-14,83,72,62,66,63,60,91,72,51,30.34,30.30,30.25,10,10,7,6,3,,0.00,4,,255
2013-7-15,86,74,62,68,62,56,93,67,37,30.25,30.22,30.18,10,8,0,13,2,18,0.00,2,Fog,291
2013-7-16,84,73,63,66,62,59,91,68,44,30.25,30.22,30.19,10,10,5,12,2,,0.00,1,,336
2013-7-17,88,76,64,70,64,61,91,71,41,30.22,30.12,29.99,10,10,2,20,3,39,0.00,3,Rain,215
2013-7-18,84,74,64,68,66,62,92,77,54,30.06,30.01,29.95,10,8,1,9,2,,0.00,3,Rain,237
2013-7-19,90,78,67,70,66,62,91,73,42,29.95,29.78,29.65,10,9,5,24,7,38,0.00,2,Rain,202
2013-7-20,78,70,61,66,61,52,88,72,44,29.85,29.71,29.66,10,10,5,16,5,24,0.00,5,Rain,217
2013-7-21,71,62,53,58,48,43,84,60,39,30.07,29.99,29.85,10,10,10,12,4,,0.00,2,,353
2013-7-22,78,62,47,63,54,45,92,72,49,30.07,29.99,29.89,10,10,10,10,2,,0.00,1,,151
2013-7-23,75,69,64,65,63,62,91,83,67,29.87,29.70,29.57,10,8,4,8,3,,0.00,6,Rain,181
2013-7-24,66,60,53,62,53,44,90,78,65,30.07,29.79,29.58,10,10,5,13,6,24,0.00,7,Rain,267
2013-7-25,67,56,44,52,46,41,90,68,48,30.17,30.13,30.07,10,10,10,8,4,,0.00,1,,333
2013-7-26,71,61,51,56,53,49,92,73,51,30.15,30.08,30.03,10,10,10,14,3,16,0.00,2,,337
2013-7-27,79,68,56,58,54,44,91,67,30,30.07,30.03,29.98,10,10,7,7,2,,0.00,2,,196
2013-7-28,78,67,56,64,59,54,91,75,52,30.02,29.99,29.95,10,10,2,14,6,18,0.00,4,Rain,176
2013-7-29,77,68,60,64,58,50,92,73,38,30.10,30.03,29.97,10,9,2,16,4,22,0.00,5,Rain,270
2013-7-30,71,63,56,54,53,50,90,69,50,30.13,30.11,30.08,10,10,10,13,4,17,0.00,4,Rain,261
2013-7-31,77,64,52,57,53,48,91,68,38,30.15,30.10,30.04,10,10,7,7,2,,0.00,1,,214